,,,PA_Meas_PMT16A,,PR_Meas_QMR101_102,,RH_Meas_QMH101,,SR_Meas_QMS101,,TA_Meas_QMH101,,GenWind,,GenWind,
date,time,status,PA,status,PR,status,RH,status,SR,status,TA,status,DirAvg,status,SpdAvg,
2008-06-09, 00:00:04,VALID,1010.29,VALID,0,VALID,96.2751,VALID,0,VALID,23.6745,VALID,157,VALID,0.761719,
2008-06-09, 00:01:04,VALID,1010.29,VALID,0,VALID,96.2904,VALID,0,VALID,23.694,VALID,172,VALID,1.03398,
2008-06-09, 00:02:04,VALID,1010.29,VALID,0,VALID,96.2751,VALID,0,VALID,23.6958,VALID,150,VALID,0.524219,
2008-06-09, 00:03:04,VALID,1010.29,VALID,0,VALID,96.2751,VALID,0,VALID,23.6745,VALID,164,VALID,0.594531,
2008-06-09, 00:04:04,VALID,1010.26,VALID,0,VALID,96.2904,VALID,0,VALID,23.694,VALID,157,VALID,0.726563,
2008-06-09, 00:05:04,VALID,1010.29,VALID,0,VALID,96.3056,VALID,0,VALID,23.694,VALID,142,VALID,0.648828,
2008-06-09, 00:06:04,VALID,1010.27,VALID,0,VALID,96.298,VALID,0,VALID,23.6745,VALID,137,VALID,0.610156,
2008-06-09, 00:07:04,VALID,1010.28,VALID,0,VALID,96.2904,VALID,0,VALID,23.6958,VALID,153,VALID,0.964844,
2008-06-09, 00:08:04,VALID,1010.29,VALID,0,VALID,96.2828,VALID,0,VALID,23.6745,VALID,122,VALID,1.11016,
2008-06-09, 00:09:04,VALID,1010.28,VALID,0,VALID,96.2675,VALID,0,VALID,23.6745,VALID,155,VALID,1.76602,
2008-06-09, 00:10:04,VALID,1010.26,VALID,0,VALID,96.298,VALID,0,VALID,23.655,VALID,142,VALID,1.35547,
2008-06-09, 00:11:04,VALID,1010.25,VALID,0,VALID,96.2751,VALID,0,VALID,23.694,VALID,83,VALID,1.03633,
2008-06-09, 00:12:04,VALID,1010.24,VALID,0,VALID,96.298,VALID,0,VALID,23.655,VALID,107,VALID,1.40547,
2008-06-09, 00:13:04,VALID,1010.2,VALID,0,VALID,96.2828,VALID,0,VALID,23.6356,VALID,134,VALID,1.17266,
2008-06-09, 00:14:04,VALID,1010.21,VALID,0,VALID,96.298,VALID,0,VALID,23.655,VALID,95,VALID,0.895312,
2008-06-09, 00:15:04,VALID,1010.22,VALID,0,VALID,96.2751,VALID,0,VALID,23.6763,VALID,85,VALID,0.702344,
2008-06-09, 00:16:04,VALID,1010.22,VALID,0,VALID,96.2904,VALID,0,VALID,23.6958,VALID,148,VALID,0.716406,
2008-06-09, 00:17:04,VALID,1010.17,VALID,0,VALID,96.2828,VALID,0,VALID,23.6745,VALID,103,VALID,0.9625,
2008-06-09, 00:18:04,VALID,1010.17,VALID,0,VALID,96.2828,VALID,0,VALID,23.655,VALID,95,VALID,0.688281,
2008-06-09, 00:19:04,VALID,1010.14,VALID,0,VALID,96.298,VALID,0,VALID,23.655,VALID,109,VALID,1.05,
2008-06-09, 00:20:04,VALID,1010.13,VALID,0,VALID,96.2828,VALID,0,VALID,23.6745,VALID,121,VALID,0.630859,
2008-06-09, 00:21:04,VALID,1010.11,VALID,0,VALID,96.2751,VALID,0,VALID,23.6745,VALID,144,VALID,0.981641,
2008-06-09, 00:22:04,VALID,1010.11,VALID,0,VALID,96.2828,VALID,0,VALID,23.655,VALID,142,VALID,0.773828,
2008-06-09, 00:23:04,VALID,1010.08,VALID,0,VALID,96.2675,VALID,0,VALID,23.6356,VALID,145,VALID,1.02891,
2008-06-09, 00:24:04,VALID,1010.08,VALID,0,VALID,96.2751,VALID,0,VALID,23.6356,VALID,133,VALID,1.39922,
2008-06-09, 00:25:04,VALID,1010.1,VALID,0,VALID,96.2599,VALID,0,VALID,23.6356,VALID,131,VALID,1.56367,
2008-06-09, 00:26:04,VALID,1010.1,VALID,0,VALID,96.2751,VALID,0,VALID,23.6161,VALID,127,VALID,1.29453,
2008-06-09, 00:27:04,VALID,1010.12,VALID,0,VALID,96.2904,VALID,0,VALID,23.655,VALID,142,VALID,1.13242,
2008-06-09, 00:28:04,VALID,1010.09,VALID,0,VALID,96.2675,VALID,0,VALID,23.6356,VALID,145,VALID,1.21563,
2008-06-09, 00:29:04,VALID,1010.09,VALID,0,VALID,96.2828,VALID,0,VALID,23.6161,VALID,130,VALID,1.2875,
2008-06-09, 00:30:04,VALID,1010.1,VALID,0,VALID,96.2675,VALID,0,VALID,23.6356,VALID,128,VALID,1.61055,
2008-06-09, 00:31:04,VALID,1010.13,VALID,0,VALID,96.2675,VALID,0,VALID,23.6356,VALID,148,VALID,1.07852,
2008-06-09, 00:32:04,VALID,1010.12,VALID,0,VALID,96.2904,VALID,0,VALID,23.655,VALID,135,VALID,0.8125,
2008-06-09, 00:33:04,VALID,1010.13,VALID,0,VALID,96.2751,VALID,0,VALID,23.6745,VALID,151,VALID,1.16133,
2008-06-09, 00:34:04,VALID,1010.14,VALID,0,VALID,96.2675,VALID,0,VALID,23.6161,VALID,142,VALID,1.43125,
2008-06-09, 00:35:04,VALID,1010.12,VALID,0,VALID,96.2675,VALID,0,VALID,23.6161,VALID,153,VALID,1.1543,
2008-06-09, 00:36:04,VALID,1010.11,VALID,0,VALID,96.2523,VALID,0,VALID,23.6161,VALID,152,VALID,1.36836,
2008-06-09, 00:37:04,VALID,1010.1,VALID,0,VALID,96.2599,VALID,0,VALID,23.5966,VALID,170,VALID,1.89531,
2008-06-09, 00:38:04,VALID,1010.12,VALID,0,VALID,96.2751,VALID,0,VALID,23.6373,VALID,119,VALID,1.0375,
2008-06-09, 00:39:04,VALID,1010.11,VALID,0,VALID,96.2675,VALID,0,VALID,23.6161,VALID,144,VALID,1.25547,
2008-06-09, 00:40:04,VALID,1010.1,VALID,0,VALID,96.2599,VALID,0,VALID,23.6356,VALID,138,VALID,1.02148,
2008-06-09, 00:41:04,VALID,1010.08,VALID,0,VALID,96.2675,VALID,0,VALID,23.6373,VALID,130,VALID,1.58125,
2008-06-09, 00:42:04,VALID,1010.05,VALID,0,VALID,96.2675,VALID,0,VALID,23.6373,VALID,122,VALID,1.03555,
2008-06-09, 00:43:04,VALID,1010.05,VALID,0,VALID,96.2751,VALID,0,VALID,23.6356,VALID,163,VALID,0.825,
2008-06-09, 00:44:04,VALID,1010.06,VALID,0,VALID,96.2599,VALID,0,VALID,23.655,VALID,135,VALID,1.025,
2008-06-09, 00:45:04,VALID,1010.03,VALID,0,VALID,96.2599,VALID,0,VALID,23.6161,VALID,167,VALID,0.969141,
2008-06-09, 00:46:04,VALID,1010.03,VALID,0,VALID,96.2751,VALID,0,VALID,23.6356,VALID,133,VALID,1.38359,
2008-06-09, 00:47:04,VALID,1010.05,VALID,0,VALID,96.2599,VALID,0,VALID,23.6356,VALID,119,VALID,1.20586,
2008-06-09, 00:48:04,VALID,1010.05,VALID,0,VALID,96.2675,VALID,0,VALID,23.655,VALID,111,VALID,1.34492,
2008-06-09, 00:49:04,VALID,1010.06,VALID,0,VALID,96.2446,VALID,0,VALID,23.6356,VALID,133,VALID,1.34492,
2008-06-09, 00:50:04,VALID,1010.04,VALID,0,VALID,96.2523,VALID,0,VALID,23.655,VALID,118,VALID,1.11094,
2008-06-09, 00:51:04,VALID,1010.07,VALID,0,VALID,96.2523,VALID,0,VALID,23.655,VALID,140,VALID,1.43281,
2008-06-09, 00:52:04,VALID,1010.08,VALID,0,VALID,96.2599,VALID,0,VALID,23.6763,VALID,127,VALID,1.46914,
2008-06-09, 00:53:04,VALID,1010.07,VALID,0,VALID,96.2675,VALID,0,VALID,23.655,VALID,137,VALID,1.18984,
2008-06-09, 00:54:04,VALID,1010.06,VALID,0,VALID,96.2446,VALID,0,VALID,23.655,VALID,131,VALID,1.14961,
2008-06-09, 00:55:04,VALID,1010.08,VALID,0,VALID,96.2523,VALID,0,VALID,23.655,VALID,154,VALID,1.63047,
2008-06-09, 00:56:04,VALID,1010.07,VALID,0,VALID,96.2523,VALID,0,VALID,23.655,VALID,124,VALID,1.10508,
2008-06-09, 00:57:04,VALID,1010.03,VALID,0,VALID,96.2446,VALID,0,VALID,23.6745,VALID,144,VALID,1.62578,
2008-06-09, 00:58:04,VALID,1010,VALID,0,VALID,96.2446,VALID,0,VALID,23.6745,VALID,107,VALID,0.958594,
2008-06-09, 00:59:04,VALID,1010.06,VALID,0,VALID,96.2446,VALID,0,VALID,23.6745,VALID,92,VALID,0.741797,
2008-06-09, 01:00:04,VALID,1010.02,VALID,0,VALID,96.2599,VALID,0,VALID,23.7135,VALID,123,VALID,0.692578,
2008-06-09, 01:01:04,VALID,1010.02,VALID,0,VALID,96.2523,VALID,0,VALID,23.694,VALID,120,VALID,0.983594,
2008-06-09, 01:02:04,VALID,1010,VALID,0,VALID,96.237,VALID,0,VALID,23.7153,VALID,103,VALID,1.01914,
2008-06-09, 01:03:04,VALID,1009.97,VALID,0,VALID,96.2294,VALID,0,VALID,23.694,VALID,106,VALID,0.934766,
2008-06-09, 01:04:04,VALID,1009.98,VALID,0,VALID,96.2446,VALID,0,VALID,23.694,VALID,113,VALID,1.09453,
2008-06-09, 01:05:04,VALID,1009.99,VALID,0,VALID,96.2446,VALID,0,VALID,23.694,VALID,136,VALID,1.54609,
2008-06-09, 01:06:04,VALID,1009.97,VALID,0,VALID,96.2446,VALID,0,VALID,23.7135,VALID,130,VALID,1.36719,
2008-06-09, 01:07:04,VALID,1009.96,VALID,0,VALID,96.237,VALID,0,VALID,23.733,VALID,116,VALID,0.891797,
2008-06-09, 01:08:04,VALID,1009.99,VALID,0,VALID,96.2446,VALID,0,VALID,23.7153,VALID,125,VALID,0.927344,
2008-06-09, 01:09:04,VALID,1009.97,VALID,0,VALID,96.237,VALID,0,VALID,23.7153,VALID,140,VALID,1.84805,
2008-06-09, 01:10:04,VALID,1009.99,VALID,0,VALID,96.237,VALID,0,VALID,23.7348,VALID,133,VALID,0.923437,
2008-06-09, 01:11:04,VALID,1009.97,VALID,0,VALID,96.2294,VALID,0,VALID,23.7348,VALID,131,VALID,1.47734,
2008-06-09, 01:12:04,VALID,1009.96,VALID,0,VALID,96.2294,VALID,0,VALID,23.7153,VALID,115,VALID,1.27148,
2008-06-09, 01:13:04,VALID,1009.97,VALID,0,VALID,96.2218,VALID,0,VALID,23.772,VALID,113,VALID,0.685156,
2008-06-09, 01:14:04,VALID,1009.96,VALID,0,VALID,96.2218,VALID,0,VALID,23.7543,VALID,120,VALID,1.23555,
2008-06-09, 01:15:04,VALID,1009.93,VALID,0,VALID,96.2218,VALID,0,VALID,23.733,VALID,108,VALID,1.86875,
2008-06-09, 01:16:04,VALID,1009.96,VALID,0,VALID,96.2218,VALID,0,VALID,23.733,VALID,112,VALID,0.960547,
2008-06-09, 01:17:04,VALID,1009.94,VALID,0,VALID,96.2294,VALID,0,VALID,23.733,VALID,100,VALID,1.16289,
2008-06-09, 01:18:04,VALID,1009.92,VALID,0,VALID,96.2218,VALID,0,VALID,23.7543,VALID,137,VALID,1.57187,
2008-06-09, 01:19:04,VALID,1009.91,VALID,0,VALID,96.2065,VALID,0,VALID,23.7525,VALID,108,VALID,1.2582,
2008-06-09, 01:20:04,VALID,1009.91,VALID,0,VALID,96.2218,VALID,0,VALID,23.7525,VALID,134,VALID,1.27148,
2008-06-09, 01:21:04,VALID,1009.89,VALID,0,VALID,96.1913,VALID,0,VALID,23.7525,VALID,105,VALID,1.175,
2008-06-09, 01:22:04,VALID,1009.88,VALID,0,VALID,96.2218,VALID,0,VALID,23.7525,VALID,127,VALID,0.846094,
2008-06-09, 01:23:04,VALID,1009.88,VALID,0,VALID,96.2218,VALID,0,VALID,23.7525,VALID,136,VALID,0.974609,
2008-06-09, 01:24:04,VALID,1009.86,VALID,0,VALID,96.1989,VALID,0,VALID,23.7525,VALID,111,VALID,1.0918,
2008-06-09, 01:25:04,VALID,1009.86,VALID,0,VALID,96.1989,VALID,0,VALID,23.7525,VALID,130,VALID,1.11719,
2008-06-09, 01:26:04,VALID,1009.87,VALID,0,VALID,96.2065,VALID,0,VALID,23.7525,VALID,139,VALID,1.475,
2008-06-09, 01:27:04,VALID,1009.85,VALID,0,VALID,96.2294,VALID,0,VALID,23.7738,VALID,111,VALID,0.886719,
2008-06-09, 01:28:04,VALID,1009.84,VALID,0,VALID,96.2141,VALID,0,VALID,23.7525,VALID,108,VALID,1.25391,
2008-06-09, 01:29:04,VALID,1009.84,VALID,0,VALID,96.176,VALID,0,VALID,23.7525,VALID,118,VALID,1.7043,
2008-06-09, 01:30:04,VALID,1009.79,VALID,0,VALID,96.1913,VALID,0,VALID,23.7525,VALID,124,VALID,1.98906,
2008-06-09, 01:31:04,VALID,1009.76,VALID,0,VALID,96.1913,VALID,0,VALID,23.7525,VALID,126,VALID,1.50859,
2008-06-09, 01:32:04,VALID,1009.78,VALID,0,VALID,96.1913,VALID,0,VALID,23.7525,VALID,127,VALID,1.23438,
2008-06-09, 01:33:04,VALID,1009.73,VALID,0,VALID,96.1913,VALID,0,VALID,23.7738,VALID,120,VALID,1.45977,
2008-06-09, 01:34:04,VALID,1009.73,VALID,0,VALID,96.1684,VALID,0,VALID,23.772,VALID,145,VALID,1.63594,
2008-06-09, 01:35:04,VALID,1009.73,VALID,0,VALID,96.1836,VALID,0,VALID,23.7525,VALID,114,VALID,1.225,
2008-06-09, 01:36:04,VALID,1009.71,VALID,0,VALID,96.176,VALID,0,VALID,23.7914,VALID,136,VALID,1.38594,
2008-06-09, 01:37:04,VALID,1009.69,VALID,0,VALID,96.1684,VALID,0,VALID,23.7738,VALID,129,VALID,1.45742,
2008-06-09, 01:38:04,VALID,1009.65,VALID,0,VALID,96.1684,VALID,0,VALID,23.772,VALID,122,VALID,1.44023,
2008-06-09, 01:39:04,VALID,1009.68,VALID,0,VALID,96.1684,VALID,0,VALID,23.8109,VALID,111,VALID,1.19766,
2008-06-09, 01:40:04,VALID,1009.65,VALID,0,VALID,96.1836,VALID,0,VALID,23.772,VALID,132,VALID,1.80469,
2008-06-09, 01:41:04,VALID,1009.65,VALID,0,VALID,96.1684,VALID,0,VALID,23.8127,VALID,133,VALID,1.48789,
2008-06-09, 01:42:04,VALID,1009.64,VALID,0,VALID,96.1531,VALID,0,VALID,23.8127,VALID,116,VALID,2.41758,
2008-06-09, 01:43:04,VALID,1009.64,VALID,0,VALID,96.1608,VALID,0,VALID,23.8127,VALID,133,VALID,1.97812,
2008-06-09, 01:44:04,VALID,1009.6,VALID,0,VALID,96.1455,VALID,0,VALID,23.7932,VALID,124,VALID,1.27695,
2008-06-09, 01:45:04,VALID,1009.61,VALID,0,VALID,96.1531,VALID,0,VALID,23.8127,VALID,129,VALID,1.75039,
2008-06-09, 01:46:04,VALID,1009.63,VALID,0,VALID,96.176,VALID,0,VALID,23.7914,VALID,133,VALID,1.84336,
2008-06-09, 01:47:04,VALID,1009.6,VALID,0,VALID,96.1608,VALID,0,VALID,23.7914,VALID,146,VALID,2.15117,
2008-06-09, 01:48:04,VALID,1009.56,VALID,0,VALID,96.1302,VALID,0,VALID,23.7932,VALID,138,VALID,2.36367,
2008-06-09, 01:49:04,VALID,1009.54,VALID,0,VALID,96.1302,VALID,0,VALID,23.772,VALID,150,VALID,2.27773,
2008-06-09, 01:50:04,VALID,1009.55,VALID,0,VALID,96.115,VALID,0,VALID,23.8322,VALID,114,VALID,2.1375,
2008-06-09, 01:51:04,VALID,1009.58,VALID,0,VALID,96.1074,VALID,0,VALID,23.7914,VALID,133,VALID,2.26836,
2008-06-09, 01:52:05,VALID,1009.53,VALID,0,VALID,96.1074,VALID,0,VALID,23.8109,VALID,144,VALID,1.73203,
2008-06-09, 01:53:05,VALID,1009.54,VALID,0,VALID,96.0997,VALID,0,VALID,23.772,VALID,129,VALID,2.21563,
2008-06-09, 01:54:05,VALID,1009.53,VALID,0,VALID,96.115,VALID,0,VALID,23.772,VALID,128,VALID,1.38555,
2008-06-09, 01:55:05,VALID,1009.52,VALID,0,VALID,96.0997,VALID,0,VALID,23.772,VALID,155,VALID,2.46445,
2008-06-09, 01:56:05,VALID,1009.54,VALID,0,VALID,96.1074,VALID,0,VALID,23.7525,VALID,127,VALID,2.51133,
2008-06-09, 01:57:05,VALID,1009.52,VALID,0,VALID,96.0921,VALID,0,VALID,23.772,VALID,137,VALID,1.53945,
2008-06-09, 01:58:05,VALID,1009.52,VALID,0,VALID,96.0692,VALID,0,VALID,23.7525,VALID,160,VALID,1.70703,
2008-06-09, 01:59:05,VALID,1009.49,VALID,0,VALID,96.0616,VALID,0,VALID,23.7738,VALID,154,VALID,1.76445,
2008-06-09, 02:00:05,VALID,1009.49,VALID,0,VALID,96.0921,VALID,0,VALID,23.7525,VALID,159,VALID,2.1957,
2008-06-09, 02:01:05,VALID,1009.52,VALID,0,VALID,96.0769,VALID,0,VALID,23.7738,VALID,149,VALID,1.11094,
2008-06-09, 02:02:05,VALID,1009.51,VALID,0,VALID,96.0692,VALID,0,VALID,23.733,VALID,163,VALID,1.41992,
2008-06-09, 02:03:05,VALID,1009.5,VALID,0,VALID,96.0616,VALID,0,VALID,23.694,VALID,159,VALID,2.80508,
2008-06-09, 02:04:05,VALID,1009.5,VALID,0,VALID,96.0311,VALID,0,VALID,23.655,VALID,152,VALID,1.72344,
2008-06-09, 02:05:05,VALID,1009.52,VALID,0,VALID,96.0464,VALID,0,VALID,23.655,VALID,140,VALID,1.65977,
2008-06-09, 02:06:05,VALID,1009.53,VALID,0,VALID,96.0235,VALID,0,VALID,23.6568,VALID,148,VALID,2.08437,
2008-06-09, 02:07:05,VALID,1009.55,VALID,0,VALID,95.9854,VALID,0,VALID,23.6179,VALID,166,VALID,2.24531,
2008-06-09, 02:08:05,VALID,1009.54,VALID,0,VALID,95.993,VALID,0,VALID,23.5966,VALID,156,VALID,1.82109,
2008-06-09, 02:09:05,VALID,1009.53,VALID,0,VALID,96.0159,VALID,0,VALID,23.6161,VALID,157,VALID,1.5582,
2008-06-09, 02:10:05,VALID,1009.55,VALID,0,VALID,96.0006,VALID,0,VALID,23.5966,VALID,149,VALID,1.76758,
2008-06-09, 02:11:05,VALID,1009.55,VALID,0,VALID,96.0159,VALID,0,VALID,23.5771,VALID,135,VALID,1.33555,
2008-06-09, 02:12:05,VALID,1009.55,VALID,0,VALID,95.993,VALID,0,VALID,23.5789,VALID,175,VALID,2.20664,
2008-06-09, 02:13:05,VALID,1009.57,VALID,0,VALID,95.9854,VALID,0,VALID,23.5381,VALID,133,VALID,1.86211,
2008-06-09, 02:14:05,VALID,1009.56,VALID,0,VALID,95.9625,VALID,0,VALID,23.5381,VALID,146,VALID,2.75195,
2008-06-09, 02:15:05,VALID,1009.55,VALID,0,VALID,95.9472,VALID,0,VALID,23.5186,VALID,152,VALID,2.15,
2008-06-09, 02:16:05,VALID,1009.56,VALID,0,VALID,95.9396,VALID,0,VALID,23.5186,VALID,144,VALID,1.96016,
2008-06-09, 02:17:05,VALID,1009.54,VALID,0,VALID,95.9472,VALID,0,VALID,23.5186,VALID,124,VALID,1.68398,
2008-06-09, 02:18:05,VALID,1009.55,VALID,0,VALID,95.9472,VALID,0,VALID,23.5186,VALID,149,VALID,1.2375,
2008-06-09, 02:19:05,VALID,1009.54,VALID,0,VALID,95.9549,VALID,0,VALID,23.4797,VALID,134,VALID,1.89102,
2008-06-09, 02:20:05,VALID,1009.53,VALID,0,VALID,95.9472,VALID,0,VALID,23.4797,VALID,146,VALID,2.12148,
2008-06-09, 02:21:05,VALID,1009.52,VALID,0,VALID,95.9701,VALID,0,VALID,23.4815,VALID,132,VALID,1.13008,
2008-06-09, 02:22:05,VALID,1009.54,VALID,0,VALID,95.9244,VALID,0,VALID,23.4407,VALID,136,VALID,1.78281,
2008-06-09, 02:23:05,VALID,1009.51,VALID,0,VALID,95.932,VALID,0,VALID,23.4212,VALID,144,VALID,1.60781,
2008-06-09, 02:24:05,VALID,1009.51,VALID,0,VALID,95.8862,VALID,0,VALID,23.4212,VALID,136,VALID,2.82305,
2008-06-09, 02:25:05,VALID,1009.54,VALID,0,VALID,95.8862,VALID,0,VALID,23.462,VALID,126,VALID,2.1668,
2008-06-09, 02:26:05,VALID,1009.53,VALID,0,VALID,95.8862,VALID,0,VALID,23.4017,VALID,140,VALID,2.2957,
2008-06-09, 02:27:05,VALID,1009.55,VALID,0,VALID,95.871,VALID,0,VALID,23.3823,VALID,141,VALID,1.81211,
2008-06-09, 02:28:05,VALID,1009.52,VALID,0,VALID,95.8557,VALID,0,VALID,23.4017,VALID,123,VALID,1.84922,
2008-06-09, 02:29:05,VALID,1009.54,VALID,0,VALID,95.8405,VALID,0,VALID,23.4017,VALID,126,VALID,1.76367,
2008-06-09, 02:30:05,VALID,1009.54,VALID,0,VALID,95.8252,VALID,0,VALID,23.3628,VALID,127,VALID,1.78437,
2008-06-09, 02:31:05,VALID,1009.54,VALID,0,VALID,95.8557,VALID,0,VALID,23.3628,VALID,127,VALID,1.34648,
2008-06-09, 02:32:05,VALID,1009.53,VALID,0,VALID,95.8557,VALID,0,VALID,23.3433,VALID,121,VALID,1.76875,
2008-06-09, 02:33:05,VALID,1009.53,VALID,0,VALID,95.8328,VALID,0,VALID,23.3433,VALID,128,VALID,2.24219,
2008-06-09, 02:34:05,VALID,1009.56,VALID,0,VALID,95.8328,VALID,0,VALID,23.3433,VALID,144,VALID,1.37852,
2008-06-09, 02:35:05,VALID,1009.56,VALID,0,VALID,95.8405,VALID,0,VALID,23.3238,VALID,123,VALID,1.45859,
2008-06-09, 02:36:05,VALID,1009.56,VALID,0,VALID,95.8786,VALID,0,VALID,23.3433,VALID,155,VALID,1.47891,
2008-06-09, 02:37:05,VALID,1009.55,VALID,0,VALID,95.8633,VALID,0,VALID,23.3043,VALID,141,VALID,0.925391,
2008-06-09, 02:38:05,VALID,1009.58,VALID,0,VALID,95.8786,VALID,0,VALID,23.2654,VALID,139,VALID,1.09805,
2008-06-09, 02:39:05,VALID,1009.54,VALID,0,VALID,95.8786,VALID,0,VALID,23.2654,VALID,116,VALID,1.50977,
2008-06-09, 02:40:05,VALID,1009.57,VALID,0,VALID,95.8405,VALID,0,VALID,23.2654,VALID,148,VALID,1.53008,
2008-06-09, 02:41:05,VALID,1009.57,VALID,0,VALID,95.8405,VALID,0,VALID,23.2671,VALID,125,VALID,1.34297,
2008-06-09, 02:42:05,VALID,1009.59,VALID,0,VALID,95.8481,VALID,0,VALID,23.2264,VALID,114,VALID,1.23203,
2008-06-09, 02:43:05,VALID,1009.58,VALID,0,VALID,95.871,VALID,0,VALID,23.2459,VALID,151,VALID,0.914844,
2008-06-09, 02:44:05,VALID,1009.58,VALID,0,VALID,95.8328,VALID,0,VALID,23.1874,VALID,125,VALID,1.6582,
2008-06-09, 02:45:05,VALID,1009.58,VALID,0,VALID,95.8328,VALID,0,VALID,23.2264,VALID,143,VALID,1.14883,
2008-06-09, 02:46:05,VALID,1009.57,VALID,0,VALID,95.8328,VALID,0,VALID,23.1874,VALID,125,VALID,0.973437,
2008-06-09, 02:47:05,VALID,1009.57,VALID,0,VALID,95.8328,VALID,0,VALID,23.1874,VALID,131,VALID,1.12227,
2008-06-09, 02:48:05,VALID,1009.58,VALID,0,VALID,95.8405,VALID,0,VALID,23.1679,VALID,134,VALID,0.966406,
2008-06-09, 02:49:05,VALID,1009.6,VALID,0,VALID,95.8405,VALID,0,VALID,23.1679,VALID,121,VALID,1.38242,
2008-06-09, 02:50:05,VALID,1009.59,VALID,0,VALID,95.8176,VALID,0,VALID,23.1485,VALID,130,VALID,1.63437,
2008-06-09, 02:51:05,VALID,1009.59,VALID,0,VALID,95.7871,VALID,0.105969,VALID,23.1679,VALID,137,VALID,1.3,
2008-06-09, 02:52:05,VALID,1009.56,VALID,0,VALID,95.8176,VALID,0,VALID,23.1485,VALID,128,VALID,1.15156,
2008-06-09, 02:53:05,VALID,1009.59,VALID,0,VALID,95.8023,VALID,0,VALID,23.129,VALID,123,VALID,1.00391,
2008-06-09, 02:54:05,VALID,1009.58,VALID,0,VALID,95.81,VALID,0,VALID,23.129,VALID,139,VALID,1.50391,
2008-06-09, 02:55:05,VALID,1009.56,VALID,0,VALID,95.8252,VALID,0,VALID,23.129,VALID,144,VALID,1.05625,
2008-06-09, 02:56:05,VALID,1009.53,VALID,0,VALID,95.8176,VALID,0,VALID,23.1095,VALID,132,VALID,0.877734,
2008-06-09, 02:57:05,VALID,1009.52,VALID,0,VALID,95.8633,VALID,0,VALID,23.1095,VALID,135,VALID,1.13125,
2008-06-09, 02:58:05,VALID,1009.53,VALID,0,VALID,95.8405,VALID,0,VALID,23.1095,VALID,128,VALID,1.12109,
2008-06-09, 02:59:05,VALID,1009.5,VALID,0,VALID,95.8252,VALID,0,VALID,23.09,VALID,132,VALID,1.41328,
2008-06-09, 03:00:05,VALID,1009.46,VALID,0,VALID,95.8176,VALID,0,VALID,23.0705,VALID,134,VALID,1.26094,
2008-06-09, 03:01:05,VALID,1009.47,VALID,0,VALID,95.8023,VALID,0,VALID,23.0705,VALID,154,VALID,1.73828,
2008-06-09, 03:02:05,VALID,1009.47,VALID,0,VALID,95.7795,VALID,0,VALID,23.0705,VALID,133,VALID,1.5918,
2008-06-09, 03:03:05,VALID,1009.46,VALID,0,VALID,95.7795,VALID,0,VALID,23.0705,VALID,132,VALID,1.51055,
2008-06-09, 03:04:05,VALID,1009.46,VALID,0,VALID,95.7795,VALID,0,VALID,23.0705,VALID,138,VALID,1.0918,
2008-06-09, 03:05:05,VALID,1009.45,VALID,0,VALID,95.8023,VALID,0,VALID,23.0316,VALID,147,VALID,1.38242,
2008-06-09, 03:06:05,VALID,1009.45,VALID,0,VALID,95.7795,VALID,0,VALID,23.0121,VALID,144,VALID,1.72695,
2008-06-09, 03:07:05,VALID,1009.48,VALID,0,VALID,95.7566,VALID,0,VALID,23.0121,VALID,146,VALID,1.20313,
2008-06-09, 03:08:05,VALID,1009.45,VALID,0,VALID,95.7566,VALID,0,VALID,23.0333,VALID,167,VALID,1.87773,
2008-06-09, 03:09:05,VALID,1009.46,VALID,0,VALID,95.7413,VALID,0.105969,VALID,23.0333,VALID,142,VALID,1.68281,
2008-06-09, 03:10:05,VALID,1009.44,VALID,0,VALID,95.7337,VALID,0,VALID,23.0121,VALID,121,VALID,1.55977,
2008-06-09, 03:11:05,VALID,1009.41,VALID,0,VALID,95.7566,VALID,0,VALID,22.9926,VALID,140,VALID,1.33438,
2008-06-09, 03:12:05,VALID,1009.42,VALID,0,VALID,95.7261,VALID,0,VALID,23.0121,VALID,119,VALID,1.15273,
2008-06-09, 03:13:05,VALID,1009.4,VALID,0,VALID,95.7413,VALID,0.105969,VALID,22.9926,VALID,146,VALID,1.10117,
2008-06-09, 03:14:05,VALID,1009.37,VALID,0,VALID,95.7108,VALID,0.105969,VALID,22.9731,VALID,146,VALID,1.88437,
2008-06-09, 03:15:05,VALID,1009.37,VALID,0,VALID,95.7108,VALID,0.105969,VALID,22.9926,VALID,140,VALID,1.20625,
2008-06-09, 03:16:05,VALID,1009.35,VALID,0,VALID,95.6803,VALID,0,VALID,22.9731,VALID,139,VALID,1.76523,
2008-06-09, 03:17:05,VALID,1009.35,VALID,0,VALID,95.6422,VALID,0.105969,VALID,22.9731,VALID,141,VALID,1.57109,
2008-06-09, 03:18:05,VALID,1009.34,VALID,0,VALID,95.5659,VALID,0.105969,VALID,22.9731,VALID,151,VALID,2.76914,
2008-06-09, 03:19:05,VALID,1009.36,VALID,0,VALID,95.5583,VALID,0,VALID,22.9926,VALID,147,VALID,1.45469,
2008-06-09, 03:20:05,VALID,1009.36,VALID,0,VALID,95.5583,VALID,0,VALID,22.9731,VALID,132,VALID,1.29609,
2008-06-09, 03:21:05,VALID,1009.37,VALID,0,VALID,95.5583,VALID,0.105969,VALID,22.9731,VALID,133,VALID,1.48359,
2008-06-09, 03:22:05,VALID,1009.36,VALID,0,VALID,95.5659,VALID,0,VALID,22.9536,VALID,136,VALID,1.82539,
2008-06-09, 03:23:05,VALID,1009.35,VALID,0,VALID,95.5354,VALID,0,VALID,22.9342,VALID,145,VALID,2.00117,
2008-06-09, 03:24:05,VALID,1009.35,VALID,0,VALID,95.5583,VALID,0,VALID,22.9536,VALID,129,VALID,1.2125,
2008-06-09, 03:25:05,VALID,1009.37,VALID,0,VALID,95.5736,VALID,0.105969,VALID,22.9536,VALID,136,VALID,1.24375,
2008-06-09, 03:26:05,VALID,1009.35,VALID,0,VALID,95.5812,VALID,0,VALID,22.9342,VALID,132,VALID,1.34766,
2008-06-09, 03:27:05,VALID,1009.36,VALID,0,VALID,95.5736,VALID,0,VALID,22.9536,VALID,133,VALID,2.08281,
2008-06-09, 03:28:05,VALID,1009.36,VALID,0,VALID,95.5888,VALID,0,VALID,22.9536,VALID,126,VALID,1.70273,
2008-06-09, 03:29:05,VALID,1009.31,VALID,0,VALID,95.5659,VALID,0,VALID,22.9342,VALID,132,VALID,2.11797,
2008-06-09, 03:30:05,VALID,1009.31,VALID,0,VALID,95.5583,VALID,0.105969,VALID,22.9536,VALID,125,VALID,1.99961,
2008-06-09, 03:31:05,VALID,1009.32,VALID,0,VALID,95.5507,VALID,0,VALID,22.9342,VALID,114,VALID,1.4207,
2008-06-09, 03:32:05,VALID,1009.33,VALID,0,VALID,95.5736,VALID,0,VALID,22.9731,VALID,115,VALID,1.26484,
2008-06-09, 03:33:05,VALID,1009.33,VALID,0,VALID,95.5736,VALID,0,VALID,22.9342,VALID,132,VALID,1.3582,
2008-06-09, 03:34:05,VALID,1009.3,VALID,0,VALID,95.5964,VALID,0,VALID,22.9147,VALID,139,VALID,1.49727,
2008-06-09, 03:35:05,VALID,1009.34,VALID,0,VALID,95.5812,VALID,0.105969,VALID,22.9324,VALID,125,VALID,1.48672,
2008-06-09, 03:36:05,VALID,1009.35,VALID,0,VALID,95.5736,VALID,0,VALID,22.9342,VALID,126,VALID,1.39688,
2008-06-09, 03:37:05,VALID,1009.37,VALID,0,VALID,95.5812,VALID,0,VALID,22.9342,VALID,132,VALID,1.5832,
2008-06-09, 03:38:05,VALID,1009.34,VALID,0,VALID,95.5812,VALID,0,VALID,22.9342,VALID,126,VALID,1.0625,
2008-06-09, 03:39:05,VALID,1009.34,VALID,0,VALID,95.5659,VALID,0,VALID,22.9359,VALID,137,VALID,2.05586,
2008-06-09, 03:40:05,VALID,1009.34,VALID,0,VALID,95.5583,VALID,0,VALID,22.9147,VALID,136,VALID,1.89766,
2008-06-09, 03:41:05,VALID,1009.34,VALID,0,VALID,95.5659,VALID,0,VALID,22.8952,VALID,136,VALID,2,
2008-06-09, 03:42:05,VALID,1009.35,VALID,0,VALID,95.5583,VALID,0,VALID,22.9164,VALID,140,VALID,1.44414,
2008-06-09, 03:43:05,VALID,1009.32,VALID,0,VALID,95.5583,VALID,0,VALID,22.9147,VALID,124,VALID,1.47617,
2008-06-09, 03:44:05,VALID,1009.3,VALID,0,VALID,95.5964,VALID,0,VALID,22.9164,VALID,130,VALID,1.33906,
2008-06-09, 03:45:05,VALID,1009.28,VALID,0,VALID,95.5812,VALID,0,VALID,22.8952,VALID,127,VALID,1.61992,
2008-06-09, 03:46:05,VALID,1009.27,VALID,0,VALID,95.6041,VALID,0,VALID,22.8952,VALID,127,VALID,1.62539,